Point Salines, Grenada

8:14 AM AST on November 22, 2017 (GMT -0400)
Point Salines International

Weather History for TGPY - February, 2013

Change the Weather History Date:

Saturday, February 23, 2013

  Actual Average Record
Temperature  
Mean Temperature 78 °F -  
Max Temperature 83 °F 83 °F 87 °F (2005)
Min Temperature 72 °F 74 °F 69 °F (2017)
Cooling Degree Days 12    
Growing Degree Days 28 (Base 50)    
Moisture  
Dew Point 73 °F    
Average Humidity 84    
Maximum Humidity 94    
Minimum Humidity 62    
Precipitation  
Precipitation 0.02 in - - ()
Sea Level Pressure  
Sea Level Pressure 29.94 in    
Wind  
Wind Speed 5 mph ()    
Max Wind Speed 16 mph    
Max Gust Speed -    
Visibility 7.5 miles    
Events Rain    
Averages and records for this station are not official NWS values.
T = Trace of Precipitation, MM = Missing Value Source: Averaged Metar Reports

Daily Weather History Graph

Daily Weather History Graph

Search for Another Location

Airport or City:

Trip Planner

Search our weather history database for the weather conditions in past years. The results will help you decide how hot, cold, wet, or windy it might be!

Date:

Astronomy

Feb. 23, 2013 Rise Set
Actual Time 6:25 AM AST 6:15 PM AST
Civil Twilight 6:03 AM AST 6:37 PM AST
Nautical Twilight 5:39 AM AST 7:01 PM AST
Astronomical Twilight 5:14 AM AST 7:26 PM AST
Moon 4:31 PM AST (2/23) 4:31 AM AST (2/23)
Length of Visible Light 12h 33m
Length of Day
11h 50m
Waxing Gibbous, 95% of the Moon is Illuminated
Feb 23
Waxing Gibbous
Feb 25
Full
Mar 4
Last Quarter
Mar 11
New
Mar 19
First Quarter

Hourly Weather History & Observations

Time (AST) Temp. Heat Index Dew Point Humidity Pressure Visibility Wind Dir Wind Speed Gust Speed Precip Events Conditions
12:00 AM 77.0 °F - 71.6 °F 83% 29.95 in 6.2 mi Calm Calm - N/A   Partly Cloudy
1:00 AM 77.0 °F - 73.4 °F 89% 29.95 in 6.2 mi Calm Calm - N/A   Partly Cloudy
2:00 AM 76 °F - 72 °F 84% 29.93 in 16 mi Calm Calm - -   Scattered Clouds
2:00 AM 75.2 °F - 71.6 °F 89% 29.92 in 6.2 mi Calm Calm - N/A   Partly Cloudy
3:00 AM 75.2 °F - 71.6 °F 89% 29.92 in 6.2 mi Calm Calm - N/A   Partly Cloudy
4:00 AM 75.2 °F - 71.6 °F 89% 29.92 in 6.2 mi ENE 4.6 mph - N/A   Partly Cloudy
5:00 AM 76 °F - 71 °F 80% 29.94 in 12 mi Calm Calm - -   Widespread Dust
5:00 AM 75.2 °F - 71.6 °F 89% 29.92 in 6.2 mi Calm Calm - N/A   Scattered Clouds
6:00 AM 77.0 °F - 69.8 °F 78% 29.92 in 6.2 mi ENE 8.1 mph - N/A   Mostly Cloudy
7:00 AM 78.8 °F - 73.4 °F 83% 29.95 in 6.2 mi East 6.9 mph - N/A   Mostly Cloudy
8:00 AM 79 °F - 72 °F 75% 29.98 in 11 mi Calm Calm - -   Widespread Dust
8:00 AM 78.8 °F - 71.6 °F 78% 29.98 in 6.2 mi ENE 8.1 mph - N/A   Mostly Cloudy
9:00 AM 82.4 °F 88.2 °F 73.4 °F 74% 29.98 in 6.2 mi ENE 13.8 mph - N/A   Mostly Cloudy
10:00 AM 84.2 °F 90.9 °F 73.4 °F 70% 29.98 in 6.2 mi ENE 11.5 mph - N/A   Scattered Clouds
11:00 AM 84 °F - 73 °F 62% 29.99 in 10 mi NE 9.2 mph - - Rain Light Rain Showers
11:00 AM 84.2 °F 90.9 °F 73.4 °F 70% 29.98 in 6.2 mi NE 9.2 mph - N/A   Mostly Cloudy
12:00 PM 78.8 °F - 77.0 °F 94% 29.98 in 5.0 mi ENE 5.8 mph - N/A Rain Light Rain
1:00 PM 80.6 °F 86.2 °F 75.2 °F 84% 29.95 in 5.6 mi NNE 6.9 mph - N/A   Mostly Cloudy
2:00 PM 80 °F - 76 °F 84% 29.92 in 7 mi North 8.1 mph - -   Mostly Cloudy
2:00 PM 80.6 °F 86.2 °F 75.2 °F 84% 29.92 in 6.2 mi North 8.1 mph - N/A   Scattered Clouds
3:00 PM 78.8 °F - 75.2 °F 89% 29.89 in 6.2 mi East 5.8 mph - N/A   Scattered Clouds
4:00 PM 78.8 °F - 75.2 °F 89% 29.89 in 6.2 mi East 11.5 mph - N/A   Scattered Clouds
5:00 PM 78 °F - 74 °F 84% 29.89 in 11 mi East 11.5 mph - -   Widespread Dust
5:00 PM 78.8 °F - 73.4 °F 83% 29.89 in 6.2 mi East 11.5 mph - N/A   Scattered Clouds
6:00 PM 77.0 °F - 75.2 °F 94% 29.89 in 6.2 mi East 11.5 mph - N/A   Scattered Clouds
7:00 PM 77.0 °F - 75.2 °F 94% 29.89 in 6.2 mi East 9.2 mph - N/A   Partly Cloudy
8:00 PM 77 °F - 74 °F 90% 29.92 in 14 mi East 8.1 mph - -   Widespread Dust
8:00 PM 77.0 °F - 75.2 °F 94% 29.92 in 6.2 mi East 8.1 mph - N/A   Scattered Clouds
9:00 PM 77.0 °F - 73.4 °F 89% 29.92 in 6.2 mi East 9.2 mph - N/A   Partly Cloudy
10:00 PM 78.8 °F - 73.4 °F 83% 29.95 in - East 11.5 mph - N/A   Partly Cloudy
11:00 PM 77 °F - 73 °F 85% 29.95 in 11 mi East 16.1 mph - - Rain Light Rain Showers
11:00 PM 77.0 °F - 73.4 °F 89% 29.95 in 6.2 mi East 16.1 mph - N/A Rain Light Rain Showers